Welcome to the New NWS' Forecast!
Most changes are behind the scenes, but click here for differences you might notice.
Latest weather observations around

Missoula, Missoula International Airport (KMSO)

Using International System of Units (Switch to English Units)
Date/ Time (MST) Wind (kph) Vis. (km) Weather Sky Cond. Temp (°C) Rel. Humidity Wind Chill (°C) Heat Index (°C) Pressure Precip. (cm)
Air Dwpt 6 hour Altimeter (hPa) Sea level (hPa) 1 hr 3 hr 6 hr
Max Min
Jan 20 16:53 5 16.09 Mostly Cloudy BKN050 2 -4     62% 1   1015.9 1018.7      
Jan 20 15:53 Calm 16.09 Cloudy OVC060 3 -4     59%     1015.9 1018.4      
Jan 20 14:53 Calm 16.09 Cloudy OVC060 2 -4     66%     1015.6 1018.2      
Jan 20 13:53 Calm 16.09 Cloudy OVC050 1 -4     69%     1015.2 1018.1      
Jan 20 12:53 Calm 16.09 Cloudy BKN060 OVC100 1 -3     75%     1015.9 1018.5      
Jan 20 11:53 W 8 16.09 Cloudy OVC055 -1 -3     82% -3   1016.3 1019.1      
Jan 20 10:53 SE 15 16.09 Cloudy OVC055 -1 -4     75% -5   1016.3 1019.1      
Jan 20 09:53 SE 5 16.09 Cloudy OVC055 -1 -4     78% -3   1016.3 1019      
Jan 20 08:53 S 8 16.09 Cloudy OVC055 -2 -4     82% -5   1015.6 1018.2      
Jan 20 07:53 ESE 15 16.09 Cloudy OVC060 -1 -4     78% -6   1014.9 1017.8      
Jan 20 06:53 SE 21 16.09 Cloudy SCT049 OVC060 -1 -5     75% -7   1014.9 1017.6      
Jan 20 05:53 E 13 16.09 Cloudy BKN050 OVC065 -1 -5     75% -5   1014.9 1017.4      
Jan 20 04:53 ESE 9 16.09 Cloudy FEW047 BKN060 OVC075 -1 -5     75% -4   1014.6 1017.3      
Jan 20 03:53 SE 13 16.09 Cloudy SCT050 OVC070 -1 -4     78% -5   1014.6 1017.1      
Jan 20 02:53 ESE 11 16.09 Cloudy BKN060 OVC075 -1 -4     75% -4   1014.6 1016.9      
Jan 20 01:53 Calm 16.09 Cloudy OVC055 -1 -4     81%     1014.2 1016.9      
Jan 20 00:53 WSW 9 16.09 Cloudy OVC070 -1 -4     81% -4   1014.2 1016.8      
Jan 19 23:53 NNE 5 16.09 Cloudy OVC048 1 -4     69% -1   1014.2 1016.7      
Jan 19 22:53 Calm 16.09 Cloudy OVC045 0 -4     75%     1014.2 1016.7      
Jan 19 21:53 Calm 16.09 Cloudy OVC055 0 -4     72%     1013.2 1015.9      
Jan 19 20:53 Calm 16.09 Cloudy SCT049 OVC055 1 -5     64%     1012.9 1015.5      
Jan 19 19:53 SSW 11 16.09 Mostly Cloudy BKN050 1 -5     64% -2   1012.5 1015      
Jan 19 18:53 WSW 5 16.09 Mostly Cloudy BKN055 BKN080 1 -5     64% -1   1012.2 1014.8      
Jan 19 17:53 WSW 15 16.09 Partly Cloudy FEW065 SCT085 SCT110 1 -4     69% -3   1012.2 1014.4      
Jan 19 16:53 SW 5 16.09 Cloudy OVC060 2 -3     67% 1   1011.9 1014.1      
Jan 19 15:53 NW 8 16.09 Cloudy OVC050 3 -4     59% 1   1011.2 1013.4      
Jan 19 14:53 SSE 5 16.09 Cloudy FEW047 OVC065 3 -2     70% 1   1010.5 1012.8      
Jan 19 13:53 SE 9 16.09 Mostly Cloudy BKN055 2 0     88% -1   1010.5 1012.8      
Jan 19 12:53 S 8 16.09 Cloudy FEW002 BKN049 OVC055 1 0     96% -2   1010.8 1013.4      
Jan 19 11:53 Calm 8.05 Fog/Mist SCT005 BKN047 OVC055 1 1     100%     1010.8 1013.2      
Jan 19 10:56 S 5 1.21 Fog/Mist OVC005 1 0     96% -1   1010.5        
Jan 19 10:53 SSW 5 1.21 Fog/Mist OVC004 1 0     96% -1   1010.5 1013     0
Jan 19 10:07 Calm 0.8 Fog BKN004 OVC008 1 0     96%     1009.8        
Jan 19 10:04 N 5 0.4 Fog BKN004 OVC008 1 0     96% -1   1009.8        
Jan 19 09:53 N 8 0.4 Fog OVC006 1 0     96% -2   1009.5 1011.9      
Jan 19 09:51 N 5 0.4 Fog OVC006 1 0     93% -1   1009.5        
Jan 19 07:53 NE 5 0.8 Fog VV003 0 -1     96% -2   1008.1 1010.6   0  
Jan 19 07:51 NE 8 0.8 Fog VV003 0 -1     93% -3   1008.1        
Jan 19 06:53 WSW 5 0.4 Fog VV004 0 -1     96% -2   1008.1 1010.2 0    
Jan 19 06:42 SW 8 0.4 Fog VV004 0 0     100% -3   1007.8   0    
Jan 19 05:55 Calm 1.61 Fog/Mist OVC004 1 0     96%     1007.5        
Jan 19 05:53 N 5 8.05 Fog/Mist OVC004 1 0     96% -1   1007.5 1009.8      
Jan 19 05:46 N 5 6.44 Fog/Mist OVC004 1 0     96% -1   1007.5        
Jan 19 05:37 NNW 5 3.22 Fog/Mist OVC004 1 0     96% -1   1007.5        
Jan 19 05:34 NNW 5 2.01 Fog/Mist OVC004 1 0     96% -1   1007.5        
Jan 19 05:21 NW 5 1.21 Fog/Mist OVC003 0 -1     96% -2   1007.5        
Jan 19 05:18 NW 5 2.01 Fog/Mist OVC003 0 -1     96% -2   1007.5        
Jan 19 04:53 NW 5 3.22 Fog/Mist OVC004 0 -1     96% -2   1007.5 1009.6     0
Jan 19 04:34 NW 5 4.02 Fog/Mist BKN004 OVC012 0 0     100% -2   1007.1        
Jan 19 04:12 Calm 4.83 Fog/Mist BKN009 OVC013 1 0     96%     1007.5        
Jan 19 04:03 E 5 3.22 Fog/Mist OVC011 1 -1     92% -1   1007.5        
Jan 19 03:53 Calm 2.41 Fog/Mist OVC008 0 -1     96%     1007.1 1009.3 0    
Jan 19 03:51 NE 5 2.01 Fog/Mist OVC008 0 -1     93% -2   1007.1   0    
Jan 19 02:53 Calm 0.8 Fog OVC008 0 -1     96%     1007.5 1009.7      
Jan 19 02:42 Calm 0.8 Fog OVC010 0 0     100%     1007.8        
Jan 19 01:01 S 5 0.8 Fog OVC008 0 -1     96% -2   1007.5        
Jan 19 00:53 S 5 1.61 Fog/Mist OVC008 0 -1     96% -2   1007.5 1009.7 0    
Jan 19 00:49 S 8 2.41 Fog/Mist OVC007 1 -1     86% -1   1007.5   0    
Jan 19 00:30 SE 8 3.22 Fog/Mist OVC005 1 -1     92% -2   1007.5   0    
Jan 19 00:23 SE 8 2.82 Fog/Mist OVC005 1 -1     92% -2   1007.5   0    
Jan 19 00:13 ESE 5 2.01 Fog/Mist OVC003 1 0     96% -1   1007.8   0    
Jan 18 23:53 SE 5 0.8 Unknown Precipitation and Fog OVC002 1 -1     92% -1   1007.8 1010.4 0    
Jan 18 23:42 SE 8 1.21 Unknown Precipitation and Fog/Mist BKN002 OVC012 1 -1     92% -2   1008.1   0    
Jan 18 23:39 SE 5 2.01 Unknown Precipitation and Fog/Mist BKN002 OVC014 1 0     96% -1   1007.8   0    
Jan 18 23:30 Calm 2.82 Light Rain and Fog/Mist SCT002 OVC014 1 0     96%     1008.1   0    
Jan 18 22:53 Calm 4.83 Light Rain and Fog/Mist SCT002 BKN014 OVC021 1 0     96%     1007.8 1010.4 0   0
Jan 18 22:43 Calm 4.83 Light Rain and Fog/Mist SCT002 OVC014 1 1     100%     1008.1   0    
Jan 18 22:39 Calm 4.02 Light Rain and Fog/Mist BKN002 OVC010 1 1     100%     1008.1   0    
Jan 18 22:25 Calm 3.22 Light Rain and Fog/Mist SCT002 OVC010 1 1     96%     1007.8   0    
Jan 18 22:20 Calm 2.01 Light Rain and Fog/Mist SCT001 OVC010 1 0     92%     1007.8   0    
Jan 18 22:12 Calm 1.21 Light Rain and Fog/Mist FEW001 OVC016 1 0     96%     1007.8   0    
Jan 18 22:03 Calm 2.01 Light Rain and Fog/Mist FEW001 OVC024 1 1     100%     1008.1   0    
Jan 18 21:43 SSW 5 2.82 Light Rain and Fog/Mist OVC030 1 0     96% -1   1008.1   0    
Jan 18 21:30 Calm 3.22 Light Rain and Fog/Mist OVC029 1 1     96%     1008.1   0    
Jan 18 20:53 Calm 8.05 Light Rain and Fog/Mist FEW009 OVC037 1 1     96%     1008.1 1010.7 0    
Jan 18 20:46 Calm 9.66 Light Rain and Fog/Mist FEW009 OVC035 1 1     96%     1008.1   0    
Jan 18 20:04 Calm 11.27 Light Rain FEW002 BKN022 OVC042 1 1     96%     1008.1   0    
Jan 18 19:53 Calm 11.27 Light Rain FEW016 BKN022 OVC042 1 1     96%     1008.5 1011.1 0 0  
Jan 18 18:53 NW 11 16.09 Light Rain OVC036 2 1     89% -1   1008.5 1011 0    
Jan 18 18:00 NW 8 16.09 Light Rain OVC032 2 1     92% -1   1008.8   0    
Jan 18 17:53 WNW 8 4.83 Light Rain and Fog/Mist FEW006 BKN020 OVC025 2 1     92% -1   1008.8 1011.5 0    
Jan 18 17:23 NW 18 4.83 Light Rain and Fog/Mist FEW006 BKN020 OVC025 2 1     89% -2   1008.8   0    
Jan 18 16:53 NNW 8 4.83 Light Rain and Fog/Mist OVC006 2 1     92% 0   1008.5 1011.3 0   0
Jan 18 16:34 WNW 9 8.05 Light Rain and Fog/Mist BKN007 BKN013 OVC037 2 1     92% -1   1008.5   0    
Jan 18 16:27 WNW 8 8.05 Light Rain and Fog/Mist SCT007 SCT013 OVC037 2 1     92% -1   1008.5   0    
Jan 18 15:53 8 11.27 Light Rain FEW030 OVC041 2 1     92% 0   1008.5 1011.1 0    
Jan 18 14:53 E 11 12.87 Light Rain OVC033 3 1     89% 0   1008.1 1010.8 0    
Jan 18 13:53 W 15 8.05 Cloudy SCT033 BKN049 OVC065 2 1     92% -2   1008.5 1011.3 0 0  
Jan 18 12:53 ESE 8 9.66 Light Rain and Fog/Mist BKN045 OVC055 2 0     88% -1   1009.5 1012.2 0    
Jan 18 11:53 S 11 9.66 Light Rain and Fog/Mist BKN044 OVC055 1 0     96% -3   1010.5 1013.5 0    
Jan 18 10:56 SE 9 8.05 Light Rain and Fog/Mist OVC032 1 -1     92% -2   1011.9   0    
Jan 18 10:53 SE 9 8.05 Light Rain and Fog/Mist OVC040 1 -1     88% -2   1011.5 1014.4 0   0
Jan 18 09:53 NNW 18 11.27 Light Rain OVC040 3 1     85% -1   1010.8 1013.2 0    
Jan 18 08:53   16.09 Cloudy SCT065 BKN100 OVC120 -1 -4     81%     1010.2 1012.9      
Jan 18 07:53 WNW 13 16.09 Cloudy FEW080 BKN100 OVC120 -3 -5     85% -7   1009.5 1012.4      
Jan 18 06:53 E 8 16.09 Mostly Cloudy FEW070 SCT085 BKN100 -2 -5     78% -5   1009.5 1012.4      
Jan 18 05:53 NNW 5   Cloudy SCT080 OVC110 -4 -7     84% -7   1010.8 1014.1      
Jan 18 04:53 N 5   Clear CLR -5 -7     88% -7   1011.5 1014.8      
Jan 18 03:53 NNW 8   Clear CLR -4 -6     85% -7   1012.5 1015.8      
Jan 18 02:53 Calm   Clear CLR -4 -6     85%     1013.9 1017.1      
Jan 18 01:53 NNW 9 16.09 Mostly Clear FEW085 -4 -6     85% -8   1014.6 1018      
Jan 18 00:53 Calm 12.87 Clear CLR -4 -6     88%     1014.6 1018.3      
Jan 17 23:53 Calm 12.87 Clear CLR -3 -6     84%     1016.3 1020.4      
Jan 17 22:53 Calm 12.87 Clear CLR -2 -4     85%     1016.9 1020.6      
Jan 17 21:53 E 8 14.48 Clear CLR -1 -4     81% -4   1017.6 1021.5      
Jan 17 20:53 Calm 12.87 Clear CLR -1 -4     81%     1018.3 1022.6      
Jan 17 19:53 Calm 14.48 Cloudy BKN060 OVC075 -1 -3     82%     1019.3 1023.3      
Jan 17 18:53 Calm 12.87 Cloudy OVC060 -1 -3     85%     1020.3 1024.2      
Jan 17 17:53 NNE 5 14.48 Cloudy OVC060 -1 -4     78% -2   1021 1024.9      
Jun 11 20:53   16.09 Clear   18 2     34%     1009.8 1009.3      
Jun 11 14:53 W 8 16.09 Clear CLR 18 -2     25%     1012.2 1012.4      
Jun 10 12:13 8 9.66 Light Rain FEW035 BKN043 OVC055 11 5     66%     1007.5   0    
Jun 10 08:53 S 11 16.09 Clear CLR 11 5     68%     1007.5 1007.1      
Jun 09 13:53 11 16.09 Light Rain FEW026 SCT037 BKN047 14 9     72%     1009.2 1008.7 0    
Jun 08 21:53   16.09 Mostly Clear FEW120 18 11     63%     1007.5 1005.9      
Jun 07 23:53 E 17 16.09 Clear CLR 21 12     57%     1010.5 1008.2      
Jun 07 09:53 Calm 16.09 Clear CLR 19 11     61%     1015.6 1013.8      
Jun 06 01:53 N 8 16.09 Clear CLR 8 5     80% 7   1021.7 1021.1